Time,TemperatureF,DewpointF,PressureIn,WindDirection,WindDirectionDegrees,WindSpeedMPH,WindSpeedGustMPH,Humidity,HourlyPrecipIn,Conditions,Clouds,dailyrainin,SoftwareType,DateUTC
2013-05-24 00:02:00,54.0,-99.9,-100.00,SSE,167,8.0,11.0,-999,0.00,,,-99.99,,2013-05-24 06:02:00,
2013-05-24 00:12:00,54.0,-99.9,-100.00,SSE,167,8.0,11.0,-999,0.00,,,-99.99,,2013-05-24 06:12:00,
2013-05-24 00:22:00,54.0,-99.9,-100.00,SSW,194,7.0,10.0,-999,0.00,,,-99.99,,2013-05-24 06:22:00,
2013-05-24 00:32:00,54.0,-99.9,-100.00,SSE,167,8.0,11.0,-999,0.00,,,-99.99,,2013-05-24 06:32:00,
2013-05-24 00:42:00,54.0,-99.9,-100.00,SSE,167,8.0,11.0,-999,0.00,,,-99.99,,2013-05-24 06:42:00,
2013-05-24 00:52:00,54.0,-99.9,-100.00,South,169,8.0,10.0,-999,0.00,,,-99.99,,2013-05-24 06:52:00,
2013-05-24 01:02:00,54.0,-99.9,-100.00,South,170,7.0,11.0,-999,0.00,,,-99.99,,2013-05-24 07:02:00,
2013-05-24 01:11:00,54.0,-99.9,-100.00,SSW,195,7.0,10.0,-999,0.00,,,-99.99,,2013-05-24 07:11:00,
2013-05-24 01:22:00,54.0,-99.9,-100.00,SSW,195,7.0,10.0,-999,0.00,,,-99.99,,2013-05-24 07:22:00,
2013-05-24 01:32:00,54.0,-99.9,-100.00,SSE,153,8.0,11.0,-999,0.00,,,-99.99,,2013-05-24 07:32:00,
2013-05-24 01:42:00,54.0,-99.9,-100.00,SSE,153,8.0,11.0,-999,0.00,,,-99.99,,2013-05-24 07:42:00,
2013-05-24 01:52:00,54.0,-99.9,-100.00,South,179,7.0,10.0,-999,0.00,,,-99.99,,2013-05-24 07:52:00,
2013-05-24 02:02:00,54.0,-99.9,-100.00,SSE,155,8.0,10.0,-999,0.00,,,-99.99,,2013-05-24 08:02:00,
2013-05-24 02:11:00,54.0,-99.9,-100.00,SSE,167,7.0,10.0,-999,0.00,,,-99.99,,2013-05-24 08:11:00,
2013-05-24 02:22:00,54.0,-99.9,-100.00,SSE,167,7.0,10.0,-999,0.00,,,-99.99,,2013-05-24 08:22:00,
2013-05-24 02:33:00,54.0,-99.9,-100.00,SSW,194,7.0,10.0,-999,0.00,,,-99.99,,2013-05-24 08:33:00,
2013-05-24 02:42:00,54.0,-99.9,-100.00,SSW,194,7.0,10.0,-999,0.00,,,-99.99,,2013-05-24 08:42:00,
2013-05-24 02:52:00,54.0,-99.9,-100.00,South,187,7.0,9.0,-999,0.00,,,-99.99,,2013-05-24 08:52:00,
2013-05-24 03:02:00,54.0,-99.9,-100.00,SSW,198,7.0,10.0,-999,0.00,,,-99.99,,2013-05-24 09:02:00,
2013-05-24 03:11:00,54.0,-99.9,-100.00,South,180,7.0,9.0,-999,0.00,,,-99.99,,2013-05-24 09:11:00,
2013-05-24 03:22:00,54.0,-99.9,-100.00,South,180,7.0,9.0,-999,0.00,,,-99.99,,2013-05-24 09:22:00,
2013-05-24 03:33:00,54.0,-99.9,-100.00,South,174,6.0,10.0,-999,0.00,,,-99.99,,2013-05-24 09:33:00,
2013-05-24 03:43:00,54.0,-99.9,-100.00,South,174,6.0,10.0,-999,0.00,,,-99.99,,2013-05-24 09:43:00,
2013-05-24 03:53:00,54.0,-99.9,-100.00,South,172,7.0,9.0,-999,0.00,,,-99.99,,2013-05-24 09:53:00,
2013-05-24 04:03:00,54.0,-99.9,-100.00,SE,142,6.0,9.0,-999,0.00,,,-99.99,,2013-05-24 10:03:00,
2013-05-24 04:12:00,54.0,-99.9,-100.00,SE,142,6.0,9.0,-999,0.00,,,-99.99,,2013-05-24 10:12:00,
2013-05-24 04:23:00,54.0,-99.9,-100.00,SSW,205,6.0,8.0,-999,0.00,,,-99.99,,2013-05-24 10:23:00,
2013-05-24 04:33:00,54.0,-99.9,-100.00,South,169,6.0,8.0,-999,0.00,,,-99.99,,2013-05-24 10:33:00,
2013-05-24 04:42:00,54.0,-99.9,-100.00,South,188,7.0,9.0,-999,0.00,,,-99.99,,2013-05-24 10:42:00,
2013-05-24 04:53:00,54.0,-99.9,-100.00,South,188,7.0,9.0,-999,0.00,,,-99.99,,2013-05-24 10:53:00,
2013-05-24 05:02:00,54.0,-99.9,-100.00,SSE,162,7.0,10.0,-999,0.00,,,-99.99,,2013-05-24 11:02:00,
2013-05-24 05:12:00,54.0,-99.9,-100.00,SSE,162,7.0,10.0,-999,0.00,,,-99.99,,2013-05-24 11:12:00,
2013-05-24 05:23:00,54.0,-99.9,-100.00,SSW,200,7.0,9.0,-999,0.00,,,-99.99,,2013-05-24 11:23:00,
2013-05-24 05:32:00,54.0,-99.9,-100.00,SSE,166,6.0,9.0,-999,0.00,,,-99.99,,2013-05-24 11:32:00,
2013-05-24 05:42:00,54.0,-99.9,-100.00,SSE,166,6.0,9.0,-999,0.00,,,-99.99,,2013-05-24 11:42:00,
2013-05-24 05:52:00,54.0,-99.9,-100.00,SSW,198,7.0,9.0,-999,0.00,,,-99.99,,2013-05-24 11:52:00,
2013-05-24 06:02:00,53.0,-99.9,-100.00,SSW,201,7.0,8.0,-999,0.00,,,-99.99,,2013-05-24 12:02:00,
2013-05-24 06:12:00,53.0,-99.9,-100.00,SSW,201,7.0,8.0,-999,0.00,,,-99.99,,2013-05-24 12:12:00,
2013-05-24 06:22:00,53.0,-99.9,-100.00,South,181,7.0,8.0,-999,0.00,,,-99.99,,2013-05-24 12:22:00,
2013-05-24 06:33:00,53.0,-99.9,-100.00,South,180,7.0,8.0,-999,0.00,,,-99.99,,2013-05-24 12:33:00,
2013-05-24 06:42:00,53.0,-99.9,-100.00,South,180,7.0,8.0,-999,0.00,,,-99.99,,2013-05-24 12:42:00,
2013-05-24 06:52:00,53.0,-99.9,-100.00,South,169,7.0,8.0,-999,0.00,,,-99.99,,2013-05-24 12:52:00,
2013-05-24 07:02:00,53.0,-99.9,-100.00,South,181,6.0,7.0,-999,0.00,,,-99.99,,2013-05-24 13:02:00,
2013-05-24 07:11:00,54.0,-99.9,-100.00,SSW,204,6.0,8.0,-999,0.00,,,-99.99,,2013-05-24 13:11:00,
2013-05-24 07:22:00,54.0,-99.9,-100.00,SSW,204,6.0,8.0,-999,0.00,,,-99.99,,2013-05-24 13:22:00,
2013-05-24 07:32:00,53.0,-99.9,-100.00,SSW,212,5.0,7.0,-999,0.00,,,-99.99,,2013-05-24 13:32:00,
2013-05-24 07:42:00,53.0,-99.9,-100.00,SSW,212,5.0,7.0,-999,0.00,,,-99.99,,2013-05-24 13:42:00,
2013-05-24 07:52:00,54.0,-99.9,-100.00,North,0,0.0,0.0,-999,0.00,,,-99.99,,2013-05-24 13:52:00,
2013-05-24 08:02:00,54.0,-99.9,-100.00,South,176,0.0,3.0,-999,0.00,,,-99.99,,2013-05-24 14:02:00,
2013-05-24 08:11:00,54.0,-99.9,-100.00,South,176,0.0,3.0,-999,0.00,,,-99.99,,2013-05-24 14:11:00,
2013-05-24 08:22:00,55.0,-99.9,-100.00,SSW,201,4.0,5.0,-999,0.00,,,-99.99,,2013-05-24 14:22:00,
2013-05-24 08:32:00,55.0,-99.9,-100.00,SW,222,4.0,6.0,-999,0.00,,,-99.99,,2013-05-24 14:32:00,
2013-05-24 08:42:00,55.0,-99.9,-100.00,SW,222,4.0,6.0,-999,0.00,,,-99.99,,2013-05-24 14:42:00,
2013-05-24 08:52:00,56.0,-99.9,-100.00,SW,236,2.0,5.0,-999,0.00,,,-99.99,,2013-05-24 14:52:00,
2013-05-24 09:02:00,57.0,-99.9,-100.00,North,0,0.0,0.0,-999,0.00,,,-99.99,,2013-05-24 15:02:00,
2013-05-24 09:11:00,57.0,-99.9,-100.00,North,0,0.0,0.0,-999,0.00,,,-99.99,,2013-05-24 15:11:00,
2013-05-24 09:22:00,59.0,-99.9,-100.00,West,266,1.0,5.0,-999,0.00,,,-99.99,,2013-05-24 15:22:00,
2013-05-24 09:33:00,58.0,-99.9,-100.00,West,274,4.0,6.0,-999,0.00,,,-99.99,,2013-05-24 15:33:00,
2013-05-24 09:43:00,58.0,-99.9,-100.00,West,274,4.0,6.0,-999,0.00,,,-99.99,,2013-05-24 15:43:00,
2013-05-24 09:53:00,58.0,-99.9,-100.00,West,267,4.0,5.0,-999,0.00,,,-99.99,,2013-05-24 15:53:00,
2013-05-24 10:03:00,58.0,-99.9,-100.00,WSW,253,4.0,6.0,-999,0.00,,,-99.99,,2013-05-24 16:03:00,
2013-05-24 10:13:00,58.0,-99.9,-100.00,WSW,253,4.0,6.0,-999,0.00,,,-99.99,,2013-05-24 16:13:00,
2013-05-24 10:22:00,53.0,-99.9,-100.00,NW,318,7.0,9.0,-999,0.00,,,-99.99,,2013-05-24 16:22:00,
2013-05-24 10:33:00,53.0,-99.9,-100.00,WNW,301,5.0,9.0,-999,0.00,,,-99.99,,2013-05-24 16:33:00,
2013-05-24 10:42:00,53.0,-99.9,-100.00,WNW,301,5.0,9.0,-999,0.00,,,-99.99,,2013-05-24 16:42:00,
2013-05-24 10:52:00,55.0,-99.9,-100.00,North,0,5.0,11.0,-999,0.00,,,-99.99,,2013-05-24 16:52:00,
2013-05-24 11:02:00,57.0,-99.9,-100.00,North,4,6.0,10.0,-999,0.00,,,-99.99,,2013-05-24 17:02:00,
2013-05-24 11:12:00,59.0,-99.9,-100.00,North,4,4.0,10.0,-999,0.00,,,-99.99,,2013-05-24 17:12:00,
2013-05-24 11:22:00,59.0,-99.9,-100.00,North,4,4.0,10.0,-999,0.00,,,-99.99,,2013-05-24 17:22:00,
2013-05-24 11:32:00,58.0,-99.9,-100.00,North,3,7.0,10.0,-999,0.00,,,-99.99,,2013-05-24 17:32:00,
2013-05-24 11:42:00,58.0,-99.9,-100.00,North,3,7.0,10.0,-999,0.00,,,-99.99,,2013-05-24 17:42:00,
2013-05-24 11:52:00,61.0,-99.9,-100.00,NNE,18,0.0,2.0,-999,0.00,,,-99.99,,2013-05-24 17:52:00,
2013-05-24 12:01:00,62.0,-99.9,-100.00,NNW,346,2.0,6.0,-999,0.00,,,-99.99,,2013-05-24 18:01:00,
2013-05-24 12:12:00,62.0,-99.9,-100.00,NNW,346,2.0,6.0,-999,0.00,,,-99.99,,2013-05-24 18:12:00,
2013-05-24 12:22:00,65.0,-99.9,-100.00,WNW,300,7.0,8.0,-999,0.00,,,-99.99,,2013-05-24 18:22:00,
2013-05-24 12:32:00,63.0,-99.9,-100.00,West,277,7.0,9.0,-999,0.00,,,-99.99,,2013-05-24 18:32:00,
2013-05-24 12:42:00,65.0,-99.9,-100.00,NW,311,6.0,7.0,-999,0.00,,,-99.99,,2013-05-24 18:42:00,
2013-05-24 12:52:00,65.0,-99.9,-100.00,NW,311,6.0,7.0,-999,0.00,,,-99.99,,2013-05-24 18:52:00,
2013-05-24 13:02:00,66.0,-99.9,-100.00,WNW,291,5.0,7.0,-999,0.00,,,-99.99,,2013-05-24 19:02:00,
2013-05-24 13:11:00,66.0,-99.9,-100.00,WNW,291,5.0,7.0,-999,0.00,,,-99.99,,2013-05-24 19:11:00,
2013-05-24 13:22:00,67.0,-99.9,-100.00,WNW,298,6.0,7.0,-999,0.00,,,-99.99,,2013-05-24 19:22:00,
2013-05-24 13:32:00,69.0,-99.9,-100.00,NW,308,3.0,6.0,-999,0.00,,,-99.99,,2013-05-24 19:32:00,
2013-05-24 13:42:00,69.0,-99.9,-100.00,NW,308,3.0,6.0,-999,0.00,,,-99.99,,2013-05-24 19:42:00,
2013-05-24 13:52:00,68.0,-99.9,-100.00,WNW,285,6.0,8.0,-999,0.00,,,-99.99,,2013-05-24 19:52:00,
2013-05-24 14:02:00,69.0,-99.9,-100.00,NW,312,6.0,7.0,-999,0.00,,,-99.99,,2013-05-24 20:02:00,
2013-05-24 14:12:00,69.0,-99.9,-100.00,NW,312,6.0,7.0,-999,0.00,,,-99.99,,2013-05-24 20:12:00,
2013-05-24 14:22:00,70.0,-99.9,-100.00,WNW,291,5.0,7.0,-999,0.00,,,-99.99,,2013-05-24 20:22:00,
2013-05-24 14:32:00,69.0,-99.9,-100.00,NW,311,5.0,6.0,-999,0.00,,,-99.99,,2013-05-24 20:32:00,
2013-05-24 14:42:00,69.0,-99.9,-100.00,NW,311,5.0,6.0,-999,0.00,,,-99.99,,2013-05-24 20:42:00,
2013-05-24 14:52:00,70.0,-99.9,-100.00,NW,325,4.0,6.0,-999,0.00,,,-99.99,,2013-05-24 20:52:00,
2013-05-24 15:02:00,69.0,-99.9,-100.00,West,278,7.0,9.0,-999,0.00,,,-99.99,,2013-05-24 21:02:00,
2013-05-24 15:12:00,69.0,-99.9,-100.00,West,278,7.0,9.0,-999,0.00,,,-99.99,,2013-05-24 21:12:00,
2013-05-24 15:22:00,71.0,-99.9,-100.00,NW,321,6.0,7.0,-999,0.00,,,-99.99,,2013-05-24 21:22:00,
2013-05-24 15:33:00,70.0,-99.9,-100.00,NNW,332,4.0,6.0,-999,0.00,,,-99.99,,2013-05-24 21:33:00,
2013-05-24 15:43:00,70.0,-99.9,-100.00,NNW,332,4.0,6.0,-999,0.00,,,-99.99,,2013-05-24 21:43:00,
2013-05-24 15:53:00,72.0,-99.9,-100.00,North,353,0.0,4.0,-999,0.00,,,-99.99,,2013-05-24 21:53:00,
2013-05-24 16:03:00,71.0,-99.9,-100.00,NW,309,5.0,7.0,-999,0.00,,,-99.99,,2013-05-24 22:03:00,
2013-05-24 16:12:00,71.0,-99.9,-100.00,NW,309,5.0,7.0,-999,0.00,,,-99.99,,2013-05-24 22:12:00,
2013-05-24 16:22:00,72.0,-99.9,-100.00,North,0,0.0,0.0,-999,0.00,,,-99.99,,2013-05-24 22:22:00,
2013-05-24 16:33:00,73.0,-99.9,-100.00,North,8,2.0,7.0,-999,0.00,,,-99.99,,2013-05-24 22:33:00,
2013-05-24 16:42:00,73.0,-99.9,-100.00,North,8,2.0,7.0,-999,0.00,,,-99.99,,2013-05-24 22:42:00,
2013-05-24 16:52:00,73.0,-99.9,-100.00,NNW,328,3.0,6.0,-999,0.00,,,-99.99,,2013-05-24 22:52:00,
2013-05-24 17:02:00,72.0,-99.9,-100.00,NW,316,5.0,6.0,-999,0.00,,,-99.99,,2013-05-24 23:02:00,
2013-05-24 17:11:00,72.0,-99.9,-100.00,NW,316,5.0,6.0,-999,0.00,,,-99.99,,2013-05-24 23:11:00,
2013-05-24 17:22:00,73.0,-99.9,-100.00,North,0,0.0,0.0,-999,0.00,,,-99.99,,2013-05-24 23:22:00,
2013-05-24 17:32:00,74.0,-99.9,-100.00,North,0,0.0,0.0,-999,0.00,,,-99.99,,2013-05-24 23:32:00,
2013-05-24 17:42:00,74.0,-99.9,-100.00,North,0,0.0,0.0,-999,0.00,,,-99.99,,2013-05-24 23:42:00,
2013-05-24 17:52:00,75.0,-99.9,-100.00,NE,34,2.0,6.0,-999,0.00,,,-99.99,,2013-05-24 23:52:00,
2013-05-24 18:01:00,75.0,-99.9,-100.00,NNW,347,2.0,4.0,-999,0.00,,,-99.99,,2013-05-25 00:01:00,
2013-05-24 18:12:00,75.0,-99.9,-100.00,NNW,347,2.0,4.0,-999,0.00,,,-99.99,,2013-05-25 00:12:00,
2013-05-24 18:22:00,75.0,-99.9,-100.00,NNE,17,1.0,6.0,-999,0.00,,,-99.99,,2013-05-25 00:22:00,
2013-05-24 18:32:00,76.0,-99.9,-100.00,North,0,0.0,0.0,-999,0.00,,,-99.99,,2013-05-25 00:32:00,
2013-05-24 18:42:00,76.0,-99.9,-100.00,North,0,0.0,0.0,-999,0.00,,,-99.99,,2013-05-25 00:42:00,
2013-05-24 18:52:00,75.0,-99.9,-100.00,North,0,0.0,0.0,-999,0.00,,,-99.99,,2013-05-25 00:52:00,
2013-05-24 19:01:00,76.0,-99.9,-100.00,North,0,0.0,0.0,-999,0.00,,,-99.99,,2013-05-25 01:01:00,
2013-05-24 19:11:00,76.0,-99.9,-100.00,North,0,0.0,0.0,-999,0.00,,,-99.99,,2013-05-25 01:11:00,
2013-05-24 19:22:00,75.0,-99.9,-100.00,North,0,0.0,0.0,-999,0.00,,,-99.99,,2013-05-25 01:22:00,
2013-05-24 19:33:00,74.0,-99.9,-100.00,North,0,0.0,0.0,-999,0.00,,,-99.99,,2013-05-25 01:33:00,
2013-05-24 19:42:00,74.0,-99.9,-100.00,North,0,0.0,0.0,-999,0.00,,,-99.99,,2013-05-25 01:42:00,
2013-05-24 19:52:00,69.0,-99.9,-100.00,North,0,0.0,0.0,-999,0.00,,,-99.99,,2013-05-25 01:52:00,
2013-05-24 20:02:00,69.0,-99.9,-100.00,North,0,0.0,0.0,-999,0.00,,,-99.99,,2013-05-25 02:02:00,
2013-05-24 20:12:00,65.0,-99.9,-100.00,North,0,0.0,0.0,-999,0.00,,,-99.99,,2013-05-25 02:12:00,
2013-05-24 20:22:00,65.0,-99.9,-100.00,North,0,0.0,0.0,-999,0.00,,,-99.99,,2013-05-25 02:22:00,
2013-05-24 20:32:00,63.0,-99.9,-100.00,North,0,0.0,0.0,-999,0.00,,,-99.99,,2013-05-25 02:32:00,
2013-05-24 20:42:00,63.0,-99.9,-100.00,North,0,0.0,0.0,-999,0.00,,,-99.99,,2013-05-25 02:42:00,
2013-05-24 20:52:00,61.0,-99.9,-100.00,North,0,0.0,0.0,-999,0.00,,,-99.99,,2013-05-25 02:52:00,
2013-05-24 21:02:00,60.0,-99.9,-100.00,North,0,0.0,0.0,-999,0.00,,,-99.99,,2013-05-25 03:02:00,
2013-05-24 21:12:00,60.0,-99.9,-100.00,North,0,0.0,0.0,-999,0.00,,,-99.99,,2013-05-25 03:12:00,
2013-05-24 21:22:00,59.0,-99.9,-100.00,North,0,0.0,0.0,-999,0.00,,,-99.99,,2013-05-25 03:22:00,
2013-05-24 21:33:00,59.0,-99.9,-100.00,North,0,0.0,0.0,-999,0.00,,,-99.99,,2013-05-25 03:33:00,
2013-05-24 21:43:00,59.0,-99.9,-100.00,North,0,0.0,0.0,-999,0.00,,,-99.99,,2013-05-25 03:43:00,
2013-05-24 21:53:00,59.0,-99.9,-100.00,North,0,0.0,0.0,-999,0.00,,,-99.99,,2013-05-25 03:53:00,
2013-05-24 22:03:00,58.0,-99.9,-100.00,North,0,0.0,0.0,-999,0.00,,,-99.99,,2013-05-25 04:03:00,
2013-05-24 22:13:00,58.0,-99.9,-100.00,North,0,0.0,0.0,-999,0.00,,,-99.99,,2013-05-25 04:13:00,
2013-05-24 22:23:00,58.0,-99.9,-100.00,North,0,0.0,0.0,-999,0.00,,,-99.99,,2013-05-25 04:23:00,
2013-05-24 22:33:00,58.0,-99.9,-100.00,North,0,0.0,0.0,-999,0.00,,,-99.99,,2013-05-25 04:33:00,
2013-05-24 22:43:00,58.0,-99.9,-100.00,North,0,0.0,0.0,-999,0.00,,,-99.99,,2013-05-25 04:43:00,
2013-05-24 22:53:00,58.0,-99.9,-100.00,East,89,6.0,7.0,-999,0.00,,,-99.99,,2013-05-25 04:53:00,
2013-05-24 23:02:00,57.0,-99.9,-100.00,East,96,3.0,6.0,-999,0.00,,,-99.99,,2013-05-25 05:02:00,
2013-05-24 23:12:00,57.0,-99.9,-100.00,East,96,3.0,6.0,-999,0.00,,,-99.99,,2013-05-25 05:12:00,
2013-05-24 23:22:00,56.0,-99.9,-100.00,ESE,104,1.0,4.0,-999,0.00,,,-99.99,,2013-05-25 05:22:00,
2013-05-24 23:32:00,55.0,-99.9,-100.00,East,80,5.0,6.0,-999,0.00,,,-99.99,,2013-05-25 05:32:00,
2013-05-24 23:43:00,55.0,-99.9,-100.00,East,80,5.0,6.0,-999,0.00,,,-99.99,,2013-05-25 05:43:00,
2013-05-24 23:53:00,54.0,-99.9,-100.00,East,86,1.0,4.0,-999,0.00,,,-99.99,,2013-05-25 05:53:00,